Time,TemperatureF,DewpointF,PressureIn,WindDirection,WindDirectionDegrees,WindSpeedMPH,WindSpeedGustMPH,Humidity,HourlyPrecipIn,Conditions,Clouds,dailyrainin,SoftwareType,DateUTC
2013-02-12 00:05:00,39.2,38.2,29.69,South,171,1.0,2.0,96,0.00,OVC,,0.00,WeatherDisplay:10.37,2013-02-12 05:05:00,
2013-02-12 00:10:00,39.0,38.2,29.69,SSE,159,1.0,2.0,97,0.00,OVC,,0.00,WeatherDisplay:10.37,2013-02-12 05:10:00,
2013-02-12 00:20:00,38.7,37.9,29.69,SSE,151,1.0,2.0,97,0.00,,,0.00,WeatherDisplay:10.37,2013-02-12 05:20:00,
2013-02-12 00:25:00,38.7,37.9,29.70,SE,136,1.0,3.0,97,0.00,,,0.00,WeatherDisplay:10.37,2013-02-12 05:25:00,
2013-02-12 00:30:00,38.3,37.5,29.70,SSE,157,1.0,2.0,97,0.00,,,0.00,WeatherDisplay:10.37,2013-02-12 05:30:00,
2013-02-12 00:35:00,38.0,37.3,29.70,SSE,161,1.0,3.0,97,0.00,,,0.00,WeatherDisplay:10.37,2013-02-12 05:35:00,
2013-02-12 00:40:00,37.8,37.0,29.70,South,177,0.0,3.0,97,0.00,,,0.00,WeatherDisplay:10.37,2013-02-12 05:40:00,
2013-02-12 00:45:00,37.6,36.8,29.70,South,183,1.0,2.0,97,0.00,BKN,,0.00,WeatherDisplay:10.37,2013-02-12 05:45:00,
2013-02-12 00:50:00,37.6,36.8,29.70,South,179,1.0,2.0,97,0.00,BKN,,0.00,WeatherDisplay:10.37,2013-02-12 05:50:00,
2013-02-12 00:55:00,37.1,35.3,29.69,South,183,2.0,5.0,93,0.00,FEW,,0.00,WeatherDisplay:10.37,2013-02-12 05:55:00,
2013-02-12 01:00:00,37.6,36.8,29.69,WNW,282,5.0,8.0,97,0.00,FEW,,0.00,WeatherDisplay:10.37,2013-02-12 06:00:00,
2013-02-12 01:05:00,37.6,36.8,29.69,West,279,3.0,8.0,97,0.00,FEW,,0.00,WeatherDisplay:10.37,2013-02-12 06:05:00,
2013-02-12 01:10:00,37.6,36.8,29.69,WNW,287,6.0,14.0,97,0.00,FEW,,0.00,WeatherDisplay:10.37,2013-02-12 06:10:00,
2013-02-12 01:15:00,37.7,36.9,29.69,NW,309,2.0,7.0,97,0.00,CLR,,0.00,WeatherDisplay:10.37,2013-02-12 06:15:00,
2013-02-12 01:20:00,37.8,37.0,29.69,NNW,327,6.0,10.0,97,0.00,CLR,,0.00,WeatherDisplay:10.37,2013-02-12 06:20:00,
2013-02-12 01:25:00,37.9,36.9,29.70,NW,306,1.0,7.0,96,0.00,CLR,,0.00,WeatherDisplay:10.37,2013-02-12 06:25:00,
2013-02-12 01:30:00,37.8,36.7,29.69,WSW,251,3.0,8.0,96,0.00,CLR,,0.00,WeatherDisplay:10.37,2013-02-12 06:30:00,
2013-02-12 01:35:00,37.8,36.5,29.70,WSW,253,5.0,8.0,95,0.00,CLR,,0.00,WeatherDisplay:10.37,2013-02-12 06:35:00,
2013-02-12 01:40:00,37.9,35.8,29.69,West,270,2.0,8.0,92,0.00,CLR,,0.00,WeatherDisplay:10.37,2013-02-12 06:40:00,
2013-02-12 01:45:00,38.1,35.4,29.70,WNW,293,5.0,8.0,90,0.00,CLR,,0.00,WeatherDisplay:10.37,2013-02-12 06:45:00,
2013-02-12 01:50:00,38.3,34.8,29.70,WNW,299,3.0,8.0,87,0.00,CLR,,0.00,WeatherDisplay:10.37,2013-02-12 06:50:00,
2013-02-12 02:00:00,38.5,33.5,29.71,West,268,2.0,7.0,82,0.00,CLR,,0.00,WeatherDisplay:10.37,2013-02-12 07:00:00,
2013-02-12 02:05:00,38.3,32.7,29.71,WNW,303,3.0,8.0,80,0.00,CLR,,0.00,WeatherDisplay:10.37,2013-02-12 07:05:00,
2013-02-12 02:10:00,38.3,32.4,29.71,WNW,293,3.0,8.0,79,0.00,CLR,,0.00,WeatherDisplay:10.37,2013-02-12 07:10:00,
2013-02-12 02:15:00,38.3,31.8,29.72,NW,312,1.0,9.0,77,0.00,CLR,,0.00,WeatherDisplay:10.37,2013-02-12 07:15:00,
2013-02-12 02:20:00,38.5,31.6,29.71,WNW,301,3.0,6.0,76,0.00,CLR,,0.00,WeatherDisplay:10.37,2013-02-12 07:20:00,
2013-02-12 02:25:00,38.5,31.2,29.71,WSW,252,5.0,10.0,75,0.00,CLR,,0.00,WeatherDisplay:10.37,2013-02-12 07:25:00,
2013-02-12 02:30:00,38.7,30.7,29.72,WSW,240,2.0,7.0,73,0.00,CLR,,0.00,WeatherDisplay:10.37,2013-02-12 07:30:00,
2013-02-12 02:35:00,38.8,30.6,29.71,WNW,286,2.0,7.0,72,0.00,CLR,,0.00,WeatherDisplay:10.37,2013-02-12 07:35:00,
2013-02-12 02:40:00,38.7,30.1,29.72,West,272,5.0,8.0,71,0.00,CLR,,0.00,WeatherDisplay:10.37,2013-02-12 07:40:00,
2013-02-12 02:45:00,38.5,29.5,29.72,West,267,2.0,8.0,70,0.00,CLR,,0.00,WeatherDisplay:10.37,2013-02-12 07:45:00,
2013-02-12 02:50:00,38.5,29.2,29.72,West,270,5.0,7.0,69,0.00,CLR,,0.00,WeatherDisplay:10.37,2013-02-12 07:50:00,
2013-02-12 02:55:00,38.6,29.3,29.72,WNW,300,7.0,11.0,69,0.00,CLR,,0.00,WeatherDisplay:10.37,2013-02-12 07:55:00,
2013-02-12 03:00:00,38.7,29.0,29.71,NW,307,6.0,12.0,68,0.00,CLR,,0.00,WeatherDisplay:10.37,2013-02-12 08:00:00,
2013-02-12 03:05:00,38.7,29.0,29.71,NW,309,5.0,10.0,68,0.00,CLR,,0.00,WeatherDisplay:10.37,2013-02-12 08:05:00,
2013-02-12 03:10:00,38.6,28.5,29.72,WNW,296,5.0,8.0,67,0.00,CLR,,0.00,WeatherDisplay:10.37,2013-02-12 08:10:00,
2013-02-12 03:15:00,38.7,28.6,29.72,WSW,256,6.0,9.0,67,0.00,CLR,,0.00,WeatherDisplay:10.37,2013-02-12 08:15:00,
2013-02-12 03:20:00,38.8,28.4,29.72,West,259,1.0,8.0,66,0.00,CLR,,0.00,WeatherDisplay:10.37,2013-02-12 08:20:00,
2013-02-12 03:25:00,38.7,28.3,29.72,West,269,5.0,9.0,66,0.00,CLR,,0.00,WeatherDisplay:10.37,2013-02-12 08:25:00,
2013-02-12 03:30:00,38.7,28.3,29.73,WNW,300,3.0,7.0,66,0.00,CLR,,0.00,WeatherDisplay:10.37,2013-02-12 08:30:00,
2013-02-12 03:35:00,38.6,28.2,29.73,NW,321,3.0,9.0,66,0.00,CLR,,0.00,WeatherDisplay:10.37,2013-02-12 08:35:00,
2013-02-12 03:40:00,38.5,28.1,29.73,West,278,2.0,9.0,66,0.00,CLR,,0.00,WeatherDisplay:10.37,2013-02-12 08:40:00,
2013-02-12 03:45:00,38.5,28.1,29.73,West,268,1.0,6.0,66,0.00,CLR,,0.00,WeatherDisplay:10.37,2013-02-12 08:45:00,
2013-02-12 03:50:00,38.3,27.9,29.73,West,263,2.0,6.0,66,0.00,CLR,,0.00,WeatherDisplay:10.37,2013-02-12 08:50:00,
2013-02-12 03:55:00,38.3,27.9,29.73,WSW,249,2.0,5.0,66,0.00,CLR,,0.00,WeatherDisplay:10.37,2013-02-12 08:55:00,
2013-02-12 04:00:00,38.3,28.3,29.74,SW,233,0.0,3.0,67,0.00,CLR,,0.00,WeatherDisplay:10.37,2013-02-12 09:00:00,
2013-02-12 04:05:00,38.1,28.1,29.74,SSW,208,1.0,4.0,67,0.00,CLR,,0.00,WeatherDisplay:10.37,2013-02-12 09:05:00,
2013-02-12 04:10:00,37.9,28.0,29.75,West,261,1.0,4.0,67,0.00,CLR,,0.00,WeatherDisplay:10.37,2013-02-12 09:10:00,
2013-02-12 04:20:00,37.8,28.1,29.74,ENE,70,1.0,5.0,68,0.00,BKN,,0.00,WeatherDisplay:10.37,2013-02-12 09:20:00,
2013-02-12 04:25:00,37.6,28.0,29.74,NNW,344,1.0,6.0,68,0.00,BKN,,0.00,WeatherDisplay:10.37,2013-02-12 09:25:00,
2013-02-12 04:30:00,37.8,28.1,29.74,WSW,251,1.0,6.0,68,0.00,BKN,,0.00,WeatherDisplay:10.37,2013-02-12 09:30:00,
2013-02-12 04:35:00,37.8,27.8,29.74,WSW,250,3.0,6.0,67,0.00,BKN,,0.00,WeatherDisplay:10.37,2013-02-12 09:35:00,
2013-02-12 04:40:00,37.8,27.8,29.74,SSW,199,2.0,7.0,67,0.00,BKN,,0.00,WeatherDisplay:10.37,2013-02-12 09:40:00,
2013-02-12 04:45:00,37.9,28.0,29.74,WNW,292,3.0,8.0,67,0.00,BKN,,0.00,WeatherDisplay:10.37,2013-02-12 09:45:00,
2013-02-12 04:50:00,37.9,27.6,29.74,WNW,303,3.0,7.0,66,0.00,BKN,,0.00,WeatherDisplay:10.37,2013-02-12 09:50:00,
2013-02-12 04:55:00,37.9,27.6,29.74,NW,306,3.0,6.0,66,0.00,BKN,,0.00,WeatherDisplay:10.37,2013-02-12 09:55:00,
2013-02-12 05:00:00,37.8,27.4,29.75,WNW,292,1.0,6.0,66,0.00,BKN,,0.00,WeatherDisplay:10.37,2013-02-12 10:00:00,
2013-02-12 05:05:00,37.8,27.4,29.75,NW,306,3.0,7.0,66,0.00,BKN,,0.00,WeatherDisplay:10.37,2013-02-12 10:05:00,
2013-02-12 05:10:00,37.7,27.4,29.75,NW,315,3.0,7.0,66,0.00,BKN,,0.00,WeatherDisplay:10.37,2013-02-12 10:10:00,
2013-02-12 05:15:00,37.8,27.4,29.75,NW,321,2.0,7.0,66,0.00,CLR,,0.00,WeatherDisplay:10.37,2013-02-12 10:15:00,
2013-02-12 05:20:00,37.9,27.5,29.75,West,276,2.0,8.0,66,0.00,CLR,,0.00,WeatherDisplay:10.37,2013-02-12 10:20:00,
2013-02-12 05:25:00,38.0,27.6,29.75,South,190,2.0,6.0,66,0.00,CLR,,0.00,WeatherDisplay:10.37,2013-02-12 10:25:00,
2013-02-12 05:30:00,38.1,27.8,29.75,NW,317,3.0,8.0,66,0.00,CLR,,0.00,WeatherDisplay:10.37,2013-02-12 10:30:00,
2013-02-12 05:35:00,38.3,27.6,29.75,West,262,2.0,10.0,65,0.00,CLR,,0.00,WeatherDisplay:10.37,2013-02-12 10:35:00,
2013-02-12 05:40:00,38.3,27.6,29.75,NW,325,5.0,8.0,65,0.00,CLR,,0.00,WeatherDisplay:10.37,2013-02-12 10:40:00,
2013-02-12 05:45:00,38.3,27.6,29.75,NNW,339,2.0,8.0,65,0.00,CLR,,0.00,WeatherDisplay:10.37,2013-02-12 10:45:00,
2013-02-12 05:50:00,38.5,27.4,29.75,WNW,300,2.0,9.0,64,0.00,CLR,,0.00,WeatherDisplay:10.37,2013-02-12 10:50:00,
2013-02-12 05:55:00,38.5,27.0,29.76,WSW,249,2.0,10.0,63,0.00,CLR,,0.00,WeatherDisplay:10.37,2013-02-12 10:55:00,
2013-02-12 06:00:00,38.7,26.8,29.76,WSW,256,2.0,6.0,62,0.00,CLR,,0.00,WeatherDisplay:10.37,2013-02-12 11:00:00,
2013-02-12 06:10:00,38.5,26.6,29.76,WNW,287,1.0,6.0,62,0.00,CLR,,0.00,WeatherDisplay:10.37,2013-02-12 11:10:00,
2013-02-12 06:15:00,38.5,26.6,29.76,West,259,3.0,7.0,62,0.00,OVC,,0.00,WeatherDisplay:10.37,2013-02-12 11:15:00,
2013-02-12 06:20:00,38.7,26.7,29.77,SW,232,3.0,7.0,62,0.00,OVC,,0.00,WeatherDisplay:10.37,2013-02-12 11:20:00,
2013-02-12 06:25:00,38.5,26.6,29.77,West,276,1.0,7.0,62,0.00,OVC,,0.00,WeatherDisplay:10.37,2013-02-12 11:25:00,
2013-02-12 06:30:00,38.5,26.6,29.77,West,271,1.0,6.0,62,0.00,OVC,,0.00,WeatherDisplay:10.37,2013-02-12 11:30:00,
2013-02-12 06:35:00,38.5,26.6,29.78,SW,221,2.0,9.0,62,0.00,OVC,,0.00,WeatherDisplay:10.37,2013-02-12 11:35:00,
2013-02-12 06:40:00,38.3,26.4,29.78,South,191,2.0,5.0,62,0.00,OVC,,0.00,WeatherDisplay:10.37,2013-02-12 11:40:00,
2013-02-12 06:45:00,38.3,26.4,29.78,NW,326,1.0,6.0,62,0.00,OVC,,0.00,WeatherDisplay:10.37,2013-02-12 11:45:00,
2013-02-12 06:50:00,38.3,26.4,29.78,WNW,287,2.0,5.0,62,0.00,OVC,,0.00,WeatherDisplay:10.37,2013-02-12 11:50:00,
2013-02-12 06:55:00,38.3,26.4,29.78,WNW,294,2.0,8.0,62,0.00,OVC,,0.00,WeatherDisplay:10.37,2013-02-12 11:55:00,
2013-02-12 07:00:00,38.3,26.4,29.78,WNW,297,1.0,8.0,62,0.00,OVC,,0.00,WeatherDisplay:10.37,2013-02-12 12:00:00,
2013-02-12 07:10:00,38.3,26.0,29.79,West,273,1.0,6.0,61,0.00,OVC,,0.00,WeatherDisplay:10.37,2013-02-12 12:10:00,
2013-02-12 07:15:00,38.3,26.4,29.79,WSW,252,3.0,6.0,62,0.00,OVC,,0.00,WeatherDisplay:10.37,2013-02-12 12:15:00,
2013-02-12 07:40:00,38.3,26.0,29.80,NW,326,5.0,8.0,61,0.00,OVC,,0.00,WeatherDisplay:10.37,2013-02-12 12:40:00,
2013-02-12 07:45:00,38.5,25.8,29.80,WSW,251,6.0,10.0,60,0.00,OVC,,0.00,WeatherDisplay:10.37,2013-02-12 12:45:00,
2013-02-12 07:50:00,38.6,25.9,29.81,West,261,2.0,8.0,60,0.00,OVC,,0.00,WeatherDisplay:10.37,2013-02-12 12:50:00,
2013-02-12 07:55:00,38.7,26.0,29.80,NW,320,2.0,6.0,60,0.00,OVC,,0.00,WeatherDisplay:10.37,2013-02-12 12:55:00,
2013-02-12 08:00:00,38.7,26.0,29.81,NNW,337,1.0,6.0,60,0.00,OVC,,0.00,WeatherDisplay:10.37,2013-02-12 13:00:00,
2013-02-12 08:05:00,38.7,26.0,29.81,West,281,2.0,6.0,60,0.00,OVC,,0.00,WeatherDisplay:10.37,2013-02-12 13:05:00,
2013-02-12 08:10:00,38.8,25.7,29.82,WSW,237,3.0,10.0,59,0.00,OVC,,0.00,WeatherDisplay:10.37,2013-02-12 13:10:00,
2013-02-12 08:15:00,39.0,25.9,29.82,WSW,241,5.0,8.0,59,0.00,OVC,,0.00,WeatherDisplay:10.37,2013-02-12 13:15:00,
2013-02-12 08:20:00,39.2,25.6,29.82,West,270,2.0,8.0,58,0.00,OVC,,0.00,WeatherDisplay:10.37,2013-02-12 13:20:00,
2013-02-12 08:25:00,39.4,25.8,29.82,West,259,1.0,6.0,58,0.00,OVC,,0.00,WeatherDisplay:10.37,2013-02-12 13:25:00,
2013-02-12 08:30:00,39.7,25.7,29.82,WSW,251,2.0,6.0,57,0.00,OVC,,0.00,WeatherDisplay:10.37,2013-02-12 13:30:00,
2013-02-12 08:35:00,40.0,26.0,29.82,NNE,27,1.0,6.0,57,0.00,OVC,,0.00,WeatherDisplay:10.37,2013-02-12 13:35:00,
2013-02-12 08:40:00,40.4,26.3,29.81,NW,320,3.0,11.0,57,0.00,OVC,,0.00,WeatherDisplay:10.37,2013-02-12 13:40:00,
2013-02-12 08:45:00,40.5,26.4,29.81,WNW,283,2.0,5.0,57,0.00,OVC,,0.00,WeatherDisplay:10.37,2013-02-12 13:45:00,
2013-02-12 08:50:00,40.6,26.2,29.81,NW,319,5.0,11.0,56,0.00,OVC,,0.00,WeatherDisplay:10.37,2013-02-12 13:50:00,
2013-02-12 08:55:00,40.8,26.3,29.81,NW,308,3.0,8.0,56,0.00,OVC,,0.00,WeatherDisplay:10.37,2013-02-12 13:55:00,
2013-02-12 09:00:00,40.8,25.9,29.81,NW,308,5.0,10.0,55,0.00,OVC,,0.00,WeatherDisplay:10.37,2013-02-12 14:00:00,
2013-02-12 09:05:00,40.9,25.1,29.81,WNW,298,5.0,12.0,53,0.00,OVC,,0.00,WeatherDisplay:10.37,2013-02-12 14:05:00,
2013-02-12 09:10:00,41.0,25.6,29.81,NW,321,2.0,12.0,54,0.00,OVC,,0.00,WeatherDisplay:10.37,2013-02-12 14:10:00,
2013-02-12 09:15:00,41.2,25.8,29.81,NNW,335,3.0,10.0,54,0.00,BKN,,0.00,WeatherDisplay:10.37,2013-02-12 14:15:00,
2013-02-12 09:20:00,41.4,25.5,29.81,NW,305,3.0,9.0,53,0.00,BKN,,0.00,WeatherDisplay:10.37,2013-02-12 14:20:00,
2013-02-12 09:25:00,41.5,25.7,29.81,WSW,242,3.0,10.0,53,0.00,BKN,,0.00,WeatherDisplay:10.37,2013-02-12 14:25:00,
2013-02-12 09:30:00,41.5,25.7,29.82,WNW,288,3.0,12.0,53,0.00,BKN,,0.00,WeatherDisplay:10.37,2013-02-12 14:30:00,
2013-02-12 09:35:00,41.4,25.5,29.82,NW,322,2.0,8.0,53,0.00,BKN,,0.00,WeatherDisplay:10.37,2013-02-12 14:35:00,
2013-02-12 09:40:00,41.4,25.5,29.82,North,358,5.0,8.0,53,0.00,BKN,,0.00,WeatherDisplay:10.37,2013-02-12 14:40:00,
2013-02-12 09:45:00,41.4,25.5,29.83,NNW,341,2.0,13.0,53,0.00,BKN,,0.00,WeatherDisplay:10.37,2013-02-12 14:45:00,
2013-02-12 09:50:00,41.4,25.5,29.83,NW,309,5.0,10.0,53,0.00,BKN,,0.00,WeatherDisplay:10.37,2013-02-12 14:50:00,
2013-02-12 09:55:00,41.4,25.5,29.84,WNW,302,6.0,8.0,53,0.00,BKN,,0.00,WeatherDisplay:10.37,2013-02-12 14:55:00,
2013-02-12 10:00:00,41.4,25.0,29.84,WSW,239,2.0,9.0,52,0.00,BKN,,0.00,WeatherDisplay:10.37,2013-02-12 15:00:00,
2013-02-12 10:05:00,41.4,25.5,29.84,WSW,248,3.0,10.0,53,0.00,BKN,,0.00,WeatherDisplay:10.37,2013-02-12 15:05:00,
2013-02-12 10:10:00,41.4,25.0,29.83,WSW,243,6.0,10.0,52,0.00,BKN,,0.00,WeatherDisplay:10.37,2013-02-12 15:10:00,
2013-02-12 10:15:00,41.5,25.2,29.83,WSW,253,3.0,10.0,52,0.00,BKN,,0.00,WeatherDisplay:10.37,2013-02-12 15:15:00,
2013-02-12 10:20:00,41.5,25.2,29.83,WNW,297,3.0,8.0,52,0.00,BKN,,0.00,WeatherDisplay:10.37,2013-02-12 15:20:00,
2013-02-12 10:25:00,41.5,25.7,29.84,NW,318,3.0,10.0,53,0.00,BKN,,0.00,WeatherDisplay:10.37,2013-02-12 15:25:00,
2013-02-12 10:30:00,41.7,25.8,29.84,WNW,298,5.0,8.0,53,0.00,BKN,,0.00,WeatherDisplay:10.37,2013-02-12 15:30:00,
2013-02-12 10:35:00,41.7,25.4,29.84,West,260,1.0,11.0,52,0.00,BKN,,0.00,WeatherDisplay:10.37,2013-02-12 15:35:00,
2013-02-12 10:40:00,41.9,25.5,29.85,West,260,5.0,9.0,52,0.00,BKN,,0.00,WeatherDisplay:10.37,2013-02-12 15:40:00,
2013-02-12 10:45:00,42.1,25.7,29.85,NW,320,2.0,7.0,52,0.00,BKN,,0.00,WeatherDisplay:10.37,2013-02-12 15:45:00,
2013-02-12 10:50:00,42.3,25.9,29.85,WNW,297,6.0,11.0,52,0.00,BKN,,0.00,WeatherDisplay:10.37,2013-02-12 15:50:00,
2013-02-12 10:55:00,42.3,24.9,29.85,NW,309,3.0,12.0,50,0.00,BKN,,0.00,WeatherDisplay:10.37,2013-02-12 15:55:00,
2013-02-12 11:00:00,42.3,25.4,29.84,NNW,342,5.0,8.0,51,0.00,BKN,,0.00,WeatherDisplay:10.37,2013-02-12 16:00:00,
2013-02-12 11:05:00,42.4,25.6,29.85,West,266,5.0,9.0,51,0.00,BKN,,0.00,WeatherDisplay:10.37,2013-02-12 16:05:00,
2013-02-12 11:10:00,42.4,25.1,29.85,WSW,246,5.0,12.0,50,0.00,BKN,,0.00,WeatherDisplay:10.37,2013-02-12 16:10:00,
2013-02-12 11:15:00,42.4,25.1,29.85,NW,310,10.0,17.0,50,0.00,OVC,,0.00,WeatherDisplay:10.37,2013-02-12 16:15:00,
2013-02-12 11:20:00,42.3,24.9,29.86,WNW,303,5.0,13.0,50,0.00,OVC,,0.00,WeatherDisplay:10.37,2013-02-12 16:20:00,
2013-02-12 11:25:00,42.1,24.3,29.86,West,269,6.0,12.0,49,0.00,OVC,,0.00,WeatherDisplay:10.37,2013-02-12 16:25:00,
2013-02-12 11:30:00,42.1,24.3,29.86,West,277,3.0,15.0,49,0.00,OVC,,0.00,WeatherDisplay:10.37,2013-02-12 16:30:00,
2013-02-12 11:35:00,41.9,24.6,29.86,West,274,2.0,8.0,50,0.00,OVC,,0.00,WeatherDisplay:10.37,2013-02-12 16:35:00,
2013-02-12 11:40:00,42.1,25.2,29.86,WSW,249,3.0,8.0,51,0.00,OVC,,0.00,WeatherDisplay:10.37,2013-02-12 16:40:00,
2013-02-12 11:45:00,42.3,24.9,29.86,SW,232,2.0,8.0,50,0.00,OVC,,0.00,WeatherDisplay:10.37,2013-02-12 16:45:00,
2013-02-12 11:50:00,42.3,24.4,29.86,NNW,327,3.0,10.0,49,0.00,OVC,,0.00,WeatherDisplay:10.37,2013-02-12 16:50:00,
2013-02-12 11:55:00,42.6,24.8,29.86,NW,311,6.0,14.0,49,0.00,OVC,,0.00,WeatherDisplay:10.37,2013-02-12 16:55:00,
2013-02-12 12:00:00,42.8,24.5,29.86,WNW,301,6.0,15.0,48,0.00,OVC,,0.00,WeatherDisplay:10.37,2013-02-12 17:00:00,
2013-02-12 12:05:00,43.2,24.3,29.86,NW,325,6.0,15.0,47,0.00,OVC,,0.00,WeatherDisplay:10.37,2013-02-12 17:05:00,
2013-02-12 12:10:00,43.8,24.9,29.86,NW,311,3.0,9.0,47,0.00,OVC,,0.00,WeatherDisplay:10.37,2013-02-12 17:10:00,
2013-02-12 12:15:00,44.1,25.1,29.86,West,262,7.0,20.0,47,0.00,OVC,,0.00,WeatherDisplay:10.37,2013-02-12 17:15:00,
2013-02-12 12:20:00,43.9,24.4,29.86,West,266,6.0,20.0,46,0.00,OVC,,0.00,WeatherDisplay:10.37,2013-02-12 17:20:00,
2013-02-12 12:25:00,43.7,23.7,29.86,WNW,294,5.0,10.0,45,0.00,OVC,,0.00,WeatherDisplay:10.37,2013-02-12 17:25:00,
2013-02-12 12:30:00,43.9,24.4,29.87,NW,307,5.0,13.0,46,0.00,OVC,,0.00,WeatherDisplay:10.37,2013-02-12 17:30:00,
2013-02-12 12:35:00,43.7,24.2,29.86,WNW,302,5.0,10.0,46,0.00,OVC,,0.00,WeatherDisplay:10.37,2013-02-12 17:35:00,
2013-02-12 12:40:00,43.5,24.1,29.86,WNW,293,7.0,17.0,46,0.00,OVC,,0.00,WeatherDisplay:10.37,2013-02-12 17:40:00,
2013-02-12 12:45:00,43.5,24.6,29.86,West,273,3.0,17.0,47,0.00,OVC,,0.00,WeatherDisplay:10.37,2013-02-12 17:45:00,
2013-02-12 12:50:00,44.1,24.6,29.85,WNW,284,8.0,13.0,46,0.00,OVC,,0.00,WeatherDisplay:10.37,2013-02-12 17:50:00,
2013-02-12 12:55:00,44.1,24.1,29.86,WNW,293,7.0,13.0,45,0.00,OVC,,0.00,WeatherDisplay:10.37,2013-02-12 17:55:00,
2013-02-12 13:00:00,44.2,24.7,29.86,West,271,5.0,11.0,46,0.00,OVC,,0.00,WeatherDisplay:10.37,2013-02-12 18:00:00,
2013-02-12 13:05:00,43.9,23.9,29.86,West,273,9.0,16.0,45,0.00,OVC,,0.00,WeatherDisplay:10.37,2013-02-12 18:05:00,
2013-02-12 13:10:00,43.3,23.4,29.86,WNW,294,6.0,18.0,45,0.00,OVC,,0.00,WeatherDisplay:10.37,2013-02-12 18:10:00,
2013-02-12 13:15:00,43.2,24.3,29.85,NW,305,5.0,13.0,47,0.00,BKN,,0.00,WeatherDisplay:10.37,2013-02-12 18:15:00,
2013-02-12 13:20:00,43.2,23.8,29.85,NW,310,2.0,13.0,46,0.00,BKN,,0.00,WeatherDisplay:10.37,2013-02-12 18:20:00,
2013-02-12 13:25:00,43.2,24.3,29.85,NW,304,3.0,10.0,47,0.00,BKN,,0.00,WeatherDisplay:10.37,2013-02-12 18:25:00,
2013-02-12 13:30:00,43.5,24.6,29.85,WNW,284,6.0,10.0,47,0.00,BKN,,0.00,WeatherDisplay:10.37,2013-02-12 18:30:00,
2013-02-12 13:35:00,44.2,24.7,29.85,WNW,283,5.0,13.0,46,0.00,BKN,,0.00,WeatherDisplay:10.37,2013-02-12 18:35:00,
2013-02-12 13:40:00,45.2,25.1,29.85,WNW,293,5.0,11.0,45,0.00,BKN,,0.00,WeatherDisplay:10.37,2013-02-12 18:40:00,
2013-02-12 13:45:00,44.8,23.6,29.85,West,270,3.0,11.0,43,0.00,BKN,,0.00,WeatherDisplay:10.37,2013-02-12 18:45:00,
2013-02-12 13:50:00,44.2,24.2,29.85,West,265,7.0,13.0,45,0.00,BKN,,0.00,WeatherDisplay:10.37,2013-02-12 18:50:00,
2013-02-12 13:55:00,43.5,23.6,29.85,WNW,290,3.0,14.0,45,0.00,BKN,,0.00,WeatherDisplay:10.37,2013-02-12 18:55:00,
2013-02-12 14:00:00,43.2,23.8,29.85,WNW,284,5.0,11.0,46,0.00,BKN,,0.00,WeatherDisplay:10.37,2013-02-12 19:00:00,
2013-02-12 14:05:00,43.0,23.6,29.85,West,273,6.0,11.0,46,0.00,BKN,,0.00,WeatherDisplay:10.37,2013-02-12 19:05:00,
2013-02-12 14:10:00,42.5,23.6,29.85,WNW,296,2.0,11.0,47,0.00,BKN,,0.00,WeatherDisplay:10.37,2013-02-12 19:10:00,
2013-02-12 14:15:00,42.3,23.9,29.85,NW,311,5.0,8.0,48,0.00,SCT,,0.00,WeatherDisplay:10.37,2013-02-12 19:15:00,
2013-02-12 14:20:00,42.3,23.9,29.84,NW,315,3.0,8.0,48,0.00,SCT,,0.00,WeatherDisplay:10.37,2013-02-12 19:20:00,
2013-02-12 14:25:00,43.0,24.1,29.84,NW,310,6.0,15.0,47,0.00,SCT,,0.00,WeatherDisplay:10.37,2013-02-12 19:25:00,
2013-02-12 14:30:00,43.3,23.9,29.84,West,271,7.0,17.0,46,0.00,SCT,,0.00,WeatherDisplay:10.37,2013-02-12 19:30:00,
2013-02-12 14:36:00,43.5,24.1,29.83,West,262,6.0,13.0,46,0.00,SCT,,0.00,WeatherDisplay:10.37,2013-02-12 19:36:00,
2013-02-12 14:41:00,44.0,24.5,29.83,West,280,3.0,12.0,46,0.00,SCT,,0.00,WeatherDisplay:10.37,2013-02-12 19:41:00,
2013-02-12 14:46:00,43.8,23.8,29.84,WNW,290,5.0,13.0,45,0.00,SCT,,0.00,WeatherDisplay:10.37,2013-02-12 19:46:00,
2013-02-12 14:51:00,43.3,23.4,29.84,WNW,301,6.0,10.0,45,0.00,SCT,,0.00,WeatherDisplay:10.37,2013-02-12 19:51:00,
2013-02-12 14:56:00,43.0,23.6,29.83,NW,323,7.0,13.0,46,0.00,SCT,,0.00,WeatherDisplay:10.37,2013-02-12 19:56:00,
2013-02-12 15:01:00,43.5,24.1,29.83,NNW,327,3.0,13.0,46,0.00,SCT,,0.00,WeatherDisplay:10.37,2013-02-12 20:01:00,
2013-02-12 15:06:00,44.2,24.7,29.84,NW,324,7.0,11.0,46,0.00,SCT,,0.00,WeatherDisplay:10.37,2013-02-12 20:06:00,
2013-02-12 15:11:00,43.7,23.7,29.84,WNW,302,5.0,10.0,45,0.00,SCT,,0.00,WeatherDisplay:10.37,2013-02-12 20:11:00,
2013-02-12 15:16:00,43.3,23.3,29.84,NW,320,2.0,10.0,45,0.00,BKN,,0.00,WeatherDisplay:10.37,2013-02-12 20:16:00,
2013-02-12 15:21:00,43.2,23.2,29.83,NW,321,2.0,11.0,45,0.00,BKN,,0.00,WeatherDisplay:10.37,2013-02-12 20:21:00,
2013-02-12 15:26:00,43.2,23.8,29.83,NW,306,3.0,11.0,46,0.00,BKN,,0.00,WeatherDisplay:10.37,2013-02-12 20:26:00,
2013-02-12 15:31:00,43.0,23.1,29.83,WNW,287,2.0,10.0,45,0.00,BKN,,0.00,WeatherDisplay:10.37,2013-02-12 20:31:00,
2013-02-12 15:41:00,43.3,24.4,29.83,WNW,283,3.0,6.0,47,0.00,BKN,,0.00,WeatherDisplay:10.37,2013-02-12 20:41:00,
2013-02-12 15:46:00,43.3,23.4,29.83,NW,315,8.0,13.0,45,0.00,BKN,,0.00,WeatherDisplay:10.37,2013-02-12 20:46:00,
2013-02-12 15:51:00,43.2,23.2,29.82,NW,309,6.0,13.0,45,0.00,BKN,,0.00,WeatherDisplay:10.37,2013-02-12 20:51:00,
2013-02-12 15:56:00,43.0,23.1,29.82,West,277,5.0,10.0,45,0.00,BKN,,0.00,WeatherDisplay:10.37,2013-02-12 20:56:00,
2013-02-12 16:01:00,42.3,22.9,29.80,West,260,6.0,9.0,46,0.00,BKN,,0.00,WeatherDisplay:10.37,2013-02-12 21:01:00,
2013-02-12 16:06:00,41.9,23.1,29.79,West,276,5.0,10.0,47,0.00,BKN,,0.00,WeatherDisplay:10.37,2013-02-12 21:06:00,
2013-02-12 16:11:00,41.4,23.2,29.78,West,280,2.0,6.0,48,0.00,BKN,,0.00,WeatherDisplay:10.37,2013-02-12 21:11:00,
2013-02-12 16:16:00,41.2,22.9,29.78,West,281,2.0,6.0,48,0.00,FEW,,0.00,WeatherDisplay:10.37,2013-02-12 21:16:00,
2013-02-12 16:21:00,40.9,23.2,29.78,WSW,248,2.0,6.0,49,0.00,FEW,,0.00,WeatherDisplay:10.37,2013-02-12 21:21:00,
2013-02-12 16:26:00,40.8,23.6,29.79,WNW,299,1.0,6.0,50,0.00,FEW,,0.00,WeatherDisplay:10.37,2013-02-12 21:26:00,
2013-02-12 16:31:00,40.8,24.1,29.79,North,3,1.0,6.0,51,0.00,FEW,,0.00,WeatherDisplay:10.37,2013-02-12 21:31:00,
2013-02-12 16:36:00,40.8,24.1,29.81,NNW,330,2.0,6.0,51,0.00,FEW,,0.00,WeatherDisplay:10.37,2013-02-12 21:36:00,
2013-02-12 16:41:00,40.7,24.0,29.82,WNW,297,1.0,5.0,51,0.00,FEW,,0.00,WeatherDisplay:10.37,2013-02-12 21:41:00,
2013-02-12 16:46:00,40.6,23.9,29.82,WSW,257,6.0,10.0,51,0.00,FEW,,0.00,WeatherDisplay:10.37,2013-02-12 21:46:00,
2013-02-12 16:51:00,40.5,23.7,29.83,West,276,3.0,10.0,51,0.00,FEW,,0.00,WeatherDisplay:10.37,2013-02-12 21:51:00,
2013-02-12 16:56:00,40.5,23.7,29.83,WNW,291,3.0,10.0,51,0.00,FEW,,0.00,WeatherDisplay:10.37,2013-02-12 21:56:00,
2013-02-12 17:01:00,40.3,23.6,29.84,WNW,298,2.0,5.0,51,0.00,FEW,,0.00,WeatherDisplay:10.37,2013-02-12 22:01:00,
2013-02-12 17:06:00,40.1,23.4,29.84,WNW,295,1.0,6.0,51,0.00,FEW,,0.00,WeatherDisplay:10.37,2013-02-12 22:06:00,
2013-02-12 17:11:00,40.0,23.8,29.84,NW,315,2.0,6.0,52,0.00,FEW,,0.00,WeatherDisplay:10.37,2013-02-12 22:11:00,
2013-02-12 17:16:00,39.7,23.5,29.86,North,358,3.0,7.0,52,0.00,BKN,,0.00,WeatherDisplay:10.37,2013-02-12 22:16:00,
2013-02-12 17:21:00,39.6,23.8,29.89,SE,142,1.0,6.0,53,0.00,BKN,,0.00,WeatherDisplay:10.37,2013-02-12 22:21:00,
2013-02-12 17:26:00,39.6,24.3,29.90,NW,326,3.0,8.0,54,0.00,BKN,,0.00,WeatherDisplay:10.37,2013-02-12 22:26:00,
2013-02-12 17:31:00,39.4,24.1,29.88,WNW,299,2.0,8.0,54,0.00,BKN,,0.00,WeatherDisplay:10.37,2013-02-12 22:31:00,
2013-02-12 17:36:00,39.4,24.1,29.88,WNW,286,2.0,6.0,54,0.00,BKN,,0.00,WeatherDisplay:10.37,2013-02-12 22:36:00,
2013-02-12 17:41:00,39.2,23.9,29.89,WNW,300,2.0,6.0,54,0.00,BKN,,0.00,WeatherDisplay:10.37,2013-02-12 22:41:00,
2013-02-12 17:46:00,39.2,23.9,29.90,NW,310,2.0,6.0,54,0.00,BKN,,0.00,WeatherDisplay:10.37,2013-02-12 22:46:00,
2013-02-12 17:51:00,39.0,24.2,29.91,West,270,2.0,6.0,55,0.00,BKN,,0.00,WeatherDisplay:10.37,2013-02-12 22:51:00,
2013-02-12 17:56:00,39.0,24.2,29.92,SSE,156,2.0,5.0,55,0.00,BKN,,0.00,WeatherDisplay:10.37,2013-02-12 22:56:00,
2013-02-12 18:01:00,39.0,24.2,29.92,SE,146,5.0,10.0,55,0.00,BKN,,0.00,WeatherDisplay:10.37,2013-02-12 23:01:00,
2013-02-12 18:06:00,39.0,24.2,29.91,South,169,2.0,7.0,55,0.00,OVC,,0.00,WeatherDisplay:10.37,2013-02-12 23:06:00,
2013-02-12 18:11:00,38.8,24.0,29.92,WSW,249,2.0,8.0,55,0.00,OVC,,0.00,WeatherDisplay:10.37,2013-02-12 23:11:00,
2013-02-12 18:16:00,38.8,24.5,29.92,West,279,2.0,7.0,56,0.00,OVC,,0.00,WeatherDisplay:10.37,2013-02-12 23:16:00,
2013-02-12 18:21:00,38.7,24.3,29.92,NW,304,1.0,5.0,56,0.00,OVC,,0.00,WeatherDisplay:10.37,2013-02-12 23:21:00,
2013-02-12 18:26:00,38.7,24.3,29.93,North,352,2.0,6.0,56,0.00,OVC,,0.00,WeatherDisplay:10.37,2013-02-12 23:26:00,
2013-02-12 18:31:00,38.7,24.3,29.92,NNW,330,1.0,6.0,56,0.00,OVC,,0.00,WeatherDisplay:10.37,2013-02-12 23:31:00,
2013-02-12 18:40:00,38.5,24.1,29.92,WNW,298,2.0,6.0,56,0.00,OVC,,0.00,WeatherDisplay:10.37,2013-02-12 23:40:00,
2013-02-12 18:45:00,38.3,24.0,29.91,NW,308,1.0,6.0,56,0.00,OVC,,0.00,WeatherDisplay:10.37,2013-02-12 23:45:00,
2013-02-12 18:50:00,38.1,23.8,29.91,ESE,108,1.0,5.0,56,0.00,OVC,,0.00,WeatherDisplay:10.37,2013-02-12 23:50:00,
2013-02-12 18:55:00,37.9,23.6,29.91,WSW,248,1.0,6.0,56,0.00,OVC,,0.00,WeatherDisplay:10.37,2013-02-12 23:55:00,
2013-02-12 19:00:00,37.9,23.6,29.92,WNW,288,1.0,4.0,56,0.00,OVC,,0.00,WeatherDisplay:10.37,2013-02-13 00:00:00,
2013-02-12 19:06:00,37.8,23.5,29.92,NW,319,1.0,2.0,56,0.00,OVC,,0.00,WeatherDisplay:10.37,2013-02-13 00:06:00,
2013-02-12 19:11:00,37.8,23.5,29.92,WSW,250,1.0,5.0,56,0.00,OVC,,0.00,WeatherDisplay:10.37,2013-02-13 00:11:00,
2013-02-12 19:16:00,37.6,23.7,29.92,West,280,1.0,8.0,57,0.00,OVC,,0.00,WeatherDisplay:10.37,2013-02-13 00:16:00,
2013-02-12 19:21:00,37.4,23.5,29.92,WNW,292,1.0,3.0,57,0.00,OVC,,0.00,WeatherDisplay:10.37,2013-02-13 00:21:00,
2013-02-12 19:26:00,37.3,22.1,29.92,North,358,1.0,3.0,54,0.00,BKN,,0.00,WeatherDisplay:10.37,2013-02-13 00:26:00,
2013-02-12 19:31:00,37.2,21.6,29.92,North,353,2.0,4.0,53,0.00,BKN,,0.00,WeatherDisplay:10.37,2013-02-13 00:31:00,
2013-02-12 19:41:00,36.9,21.4,29.92,East,94,1.0,4.0,53,0.00,BKN,,0.00,WeatherDisplay:10.37,2013-02-13 00:41:00,
2013-02-12 19:46:00,36.9,21.3,29.93,ESE,123,1.0,3.0,53,0.00,BKN,,0.00,WeatherDisplay:10.37,2013-02-13 00:46:00,
2013-02-12 19:51:00,36.7,21.6,29.93,ESE,113,1.0,3.0,54,0.00,BKN,,0.00,WeatherDisplay:10.37,2013-02-13 00:51:00,
2013-02-12 19:56:00,36.5,21.4,29.92,South,180,0.0,3.0,54,0.00,BKN,,0.00,WeatherDisplay:10.37,2013-02-13 00:56:00,
2013-02-12 20:06:00,36.2,21.2,29.91,SSW,210,0.0,2.0,54,0.00,CLR,,0.00,WeatherDisplay:10.37,2013-02-13 01:06:00,
2013-02-12 20:11:00,36.0,21.4,29.91,South,171,1.0,3.0,55,0.00,CLR,,0.00,WeatherDisplay:10.37,2013-02-13 01:11:00,
2013-02-12 20:16:00,35.8,21.2,29.91,ESE,113,1.0,2.0,55,0.00,CLR,,0.00,WeatherDisplay:10.37,2013-02-13 01:16:00,
2013-02-12 20:21:00,35.6,21.4,29.91,East,96,1.0,3.0,56,0.00,CLR,,0.00,WeatherDisplay:10.37,2013-02-13 01:21:00,
2013-02-12 20:26:00,35.4,21.7,29.91,East,93,0.0,2.0,57,0.00,CLR,,0.00,WeatherDisplay:10.37,2013-02-13 01:26:00,
2013-02-12 20:31:00,35.3,22.0,29.90,ENE,59,0.0,2.0,58,0.00,CLR,,0.00,WeatherDisplay:10.37,2013-02-13 01:31:00,
2013-02-12 20:36:00,35.1,21.8,29.89,North,355,1.0,3.0,58,0.00,CLR,,0.00,WeatherDisplay:10.37,2013-02-13 01:36:00,
2013-02-12 20:41:00,34.9,21.6,29.89,NW,311,2.0,6.0,58,0.00,CLR,,0.00,WeatherDisplay:10.37,2013-02-13 01:41:00,
2013-02-12 20:46:00,34.9,21.6,29.88,NW,304,1.0,6.0,58,0.00,CLR,,0.00,WeatherDisplay:10.37,2013-02-13 01:46:00,
2013-02-12 20:51:00,34.9,21.6,29.89,NW,304,3.0,6.0,58,0.00,CLR,,0.00,WeatherDisplay:10.37,2013-02-13 01:51:00,
2013-02-12 20:56:00,35.1,21.3,29.89,WNW,287,3.0,6.0,57,0.00,CLR,,0.00,WeatherDisplay:10.37,2013-02-13 01:56:00,
2013-02-12 21:01:00,35.2,21.5,29.89,WNW,290,3.0,6.0,57,0.00,CLR,,0.00,WeatherDisplay:10.37,2013-02-13 02:01:00,
2013-02-12 21:11:00,35.4,21.3,29.88,WNW,291,1.0,4.0,56,0.00,CLR,,0.00,WeatherDisplay:10.37,2013-02-13 02:11:00,
2013-02-12 21:16:00,35.2,21.1,29.88,WNW,282,1.0,3.0,56,0.00,CLR,,0.00,WeatherDisplay:10.37,2013-02-13 02:16:00,
2013-02-12 21:21:00,35.3,21.1,29.87,WNW,297,2.0,4.0,56,0.00,CLR,,0.00,WeatherDisplay:10.37,2013-02-13 02:21:00,
2013-02-12 21:26:00,35.2,21.1,29.87,WNW,289,2.0,4.0,56,0.00,CLR,,0.00,WeatherDisplay:10.37,2013-02-13 02:26:00,
2013-02-12 21:31:00,35.1,20.9,29.87,WNW,290,1.0,4.0,56,0.00,CLR,,0.00,WeatherDisplay:10.37,2013-02-13 02:31:00,
2013-02-12 21:41:00,34.8,20.6,29.86,NW,313,3.0,6.0,56,0.00,CLR,,0.00,WeatherDisplay:10.37,2013-02-13 02:41:00,
2013-02-12 21:46:00,34.7,20.6,29.87,WNW,298,2.0,5.0,56,0.00,CLR,,0.00,WeatherDisplay:10.37,2013-02-13 02:46:00,
2013-02-12 21:51:00,34.7,20.6,29.87,WNW,294,2.0,6.0,56,0.00,CLR,,0.00,WeatherDisplay:10.37,2013-02-13 02:51:00,
2013-02-12 21:56:00,34.7,20.6,29.86,WNW,302,5.0,6.0,56,0.00,CLR,,0.00,WeatherDisplay:10.37,2013-02-13 02:56:00,
2013-02-12 22:01:00,34.5,20.4,29.86,NW,319,2.0,6.0,56,0.00,CLR,,0.00,WeatherDisplay:10.37,2013-02-13 03:01:00,
2013-02-12 22:06:00,34.7,20.6,29.87,NW,310,2.0,6.0,56,0.00,CLR,,0.00,WeatherDisplay:10.37,2013-02-13 03:06:00,
2013-02-12 22:11:00,34.7,20.6,29.86,West,281,2.0,6.0,56,0.00,CLR,,0.00,WeatherDisplay:10.37,2013-02-13 03:11:00,
2013-02-12 22:16:00,34.7,20.6,29.87,West,261,1.0,5.0,56,0.00,CLR,,0.00,WeatherDisplay:10.37,2013-02-13 03:16:00,
2013-02-12 22:21:00,34.5,20.4,29.87,SW,225,1.0,2.0,56,0.00,CLR,,0.00,WeatherDisplay:10.37,2013-02-13 03:21:00,
2013-02-12 22:26:00,34.5,20.4,29.88,WSW,256,1.0,2.0,56,0.00,CLR,,0.00,WeatherDisplay:10.37,2013-02-13 03:26:00,
2013-02-12 22:31:00,34.3,20.3,29.87,West,278,2.0,3.0,56,0.00,CLR,,0.00,WeatherDisplay:10.37,2013-02-13 03:31:00,
2013-02-12 22:36:00,34.2,20.1,29.87,WNW,292,1.0,4.0,56,0.00,CLR,,0.00,WeatherDisplay:10.37,2013-02-13 03:36:00,
2013-02-12 22:41:00,34.2,20.1,29.87,West,269,2.0,5.0,56,0.00,CLR,,0.00,WeatherDisplay:10.37,2013-02-13 03:41:00,
2013-02-12 22:46:00,34.0,20.3,29.87,West,261,2.0,4.0,57,0.00,CLR,,0.00,WeatherDisplay:10.37,2013-02-13 03:46:00,
2013-02-12 22:51:00,34.0,20.3,29.88,West,273,2.0,5.0,57,0.00,CLR,,0.00,WeatherDisplay:10.37,2013-02-13 03:51:00,
2013-02-12 22:56:00,33.8,20.2,29.88,WSW,258,1.0,3.0,57,0.00,CLR,,0.00,WeatherDisplay:10.37,2013-02-13 03:56:00,
2013-02-12 23:01:00,33.8,20.2,29.88,SW,232,1.0,2.0,57,0.00,CLR,,0.00,WeatherDisplay:10.37,2013-02-13 04:01:00,
2013-02-12 23:06:00,33.8,20.2,29.87,SW,226,1.0,2.0,57,0.00,CLR,,0.00,WeatherDisplay:10.37,2013-02-13 04:06:00,
2013-02-12 23:11:00,33.6,20.8,29.87,WSW,238,1.0,2.0,59,0.00,CLR,,0.00,WeatherDisplay:10.37,2013-02-13 04:11:00,
2013-02-12 23:16:00,33.5,20.7,29.88,South,191,1.0,2.0,59,0.00,CLR,,0.00,WeatherDisplay:10.37,2013-02-13 04:16:00,
2013-02-12 23:21:00,33.4,20.6,29.88,South,191,0.0,2.0,59,0.00,CLR,,0.00,WeatherDisplay:10.37,2013-02-13 04:21:00,
2013-02-12 23:26:00,33.3,20.5,29.88,SW,228,0.0,2.0,59,0.00,CLR,,0.00,WeatherDisplay:10.37,2013-02-13 04:26:00,
2013-02-12 23:31:00,33.3,20.5,29.88,West,274,0.0,2.0,59,0.00,CLR,,0.00,WeatherDisplay:10.37,2013-02-13 04:31:00,
2013-02-12 23:36:00,33.3,20.9,29.88,NW,318,0.0,2.0,60,0.00,CLR,,0.00,WeatherDisplay:10.37,2013-02-13 04:36:00,
2013-02-12 23:41:00,33.1,20.7,29.88,NNW,336,0.0,2.0,60,0.00,CLR,,0.00,WeatherDisplay:10.37,2013-02-13 04:41:00,
2013-02-12 23:46:00,32.9,20.9,29.88,NW,314,0.0,2.0,61,0.00,CLR,,0.00,WeatherDisplay:10.37,2013-02-13 04:46:00,
2013-02-12 23:56:00,32.5,21.0,29.88,ESE,123,0.0,1.0,62,0.00,CLR,,0.00,WeatherDisplay:10.37,2013-02-13 04:56:00,